Location: Podia
(1.5569°N, 32.3469°E)
Time: 01:43:43
(UTC+00:00)

Hubble Space Telescope - Pass Details

Date: 15 May 2021
Orbit: 535 x 539 km, 28.5° (Epoch: 16 June)

Event Time Altitude Azimuth Distance (km) Brightness Sun altitude
Exits shadow 02:47:36 15° 290° (WNW) 1,494 2.6 -13.5°
Maximum altitude 02:49:51 22° 331° (NNW) 1,174 2.4 -13.0°
Drops below altitude 10° 02:53:06 10° 24° (NNE) 1,769 4.1 -12.2°
Sets 02:55:43 0° 40° (NE) 2,657 5.4 -11.6°
